LX1CU-13 Weather Reports


time (UTC)temp
F
wind
direction
speed
knots
gust
knots
rain 1hr
in
rain 24hr
in
rain mn
in
humidity
%
barometer
mb
20260502231840 52 270 0.0 0.0 0.00 0.00 0.00 81 1011.0
20260502231340 52 270 0.0 0.0 0.00 0.00 0.00 81 1011.1
20260502230840 52 270 0.0 0.0 0.00 0.00 0.00 81 1011.1
20260502230340 52 270 0.0 0.0 0.00 0.00 0.00 81 1011.1
20260502225840 52 270 0.0 0.0 0.00 0.00 0.00 81 1011.1
20260502225340 52 270 0.0 0.0 0.00 0.00 0.00 81 1011.1
20260502224840 52 270 0.0 0.0 0.00 0.00 0.00 81 1011.2
20260502224340 52 270 0.0 0.0 0.00 0.00 0.00 81 1011.2
20260502223840 52 270 0.0 0.0 0.00 0.00 0.00 81 1011.2
20260502223340 52 270 0.0 0.0 0.00 0.00 0.00 81 1011.2
20260502222840 52 270 0.0 0.0 0.00 0.00 0.00 81 1011.3
20260502222340 52 270 0.0 0.0 0.00 0.00 0.00 81 1011.3
20260502221840 52 270 0.0 0.0 0.00 0.00 0.00 81 1011.3
20260502221340 52 270 0.0 0.0 0.00 0.00 0.00 81 1011.2
20260502220840 52 270 0.0 0.0 0.00 0.00 0.00 81 1011.3
20260502220340 52 270 0.0 0.0 0.00 0.00 0.00 80 1011.3
20260502215840 52 270 0.0 0.0 0.00 0.00 0.00 80 1011.2
20260502215340 52 270 0.0 0.0 0.00 0.00 0.00 80 1011.3
20260502214840 52 270 0.0 0.0 0.00 0.00 0.00 80 1011.2
20260502214340 52 270 0.0 0.0 0.00 0.00 0.00 80 1011.2
20260502213840 52 270 0.0 0.0 0.00 0.00 0.00 80 1011.2
20260502213340 52 270 0.0 0.0 0.00 0.00 0.00 80 1011.3
20260502212840 53 270 0.0 0.0 0.00 0.00 0.00 79 1011.2
20260502212340 53 270 0.0 0.0 0.00 0.00 0.00 79 1011.3
20260502211840 53 270 0.0 0.0 0.00 0.00 0.00 79 1011.4
20260502211340 53 270 0.0 0.0 0.00 0.00 0.00 79 1011.3
20260502210840 53 270 0.0 0.0 0.00 0.00 0.00 79 1011.4
20260502210340 53 270 0.0 0.0 0.00 0.00 0.00 79 1011.3
20260502205840 54 270 0.0 0.0 0.00 0.00 0.00 79 1011.5
20260502205340 54 270 0.0 0.0 0.00 0.00 0.00 78 1011.3
20260502204840 54 270 0.0 0.0 0.00 0.00 0.00 78 1011.3
20260502204340 54 270 0.0 0.0 0.00 0.00 0.00 77 1011.4
20260502203840 55 270 0.0 0.0 0.00 0.00 0.00 77 1011.4
20260502203340 55 270 0.0 0.0 0.00 0.00 0.00 77 1011.4
20260502202840 55 270 0.0 0.0 0.00 0.00 0.00 76 1011.4
20260502202340 55 270 0.0 0.0 0.00 0.00 0.00 76 1011.3
20260502201840 55 270 0.0 0.0 0.00 0.00 0.00 75 1011.4
20260502201340 55 270 0.0 0.0 0.00 0.00 0.00 75 1011.4
20260502200840 56 270 0.0 0.0 0.00 0.00 0.00 75 1011.4
20260502200340 56 270 0.0 0.0 0.00 0.00 0.00 75 1011.4
20260502195840 57 270 0.0 0.0 0.00 0.00 0.00 75 1011.3
20260502195340 57 270 0.0 0.0 0.00 0.00 0.00 74 1011.3
20260502194840 57 270 0.0 0.0 0.00 0.00 0.00 74 1011.4
20260502194340 58 270 0.0 0.0 0.00 0.00 0.00 73 1011.4
20260502193840 58 270 0.0 0.0 0.00 0.00 0.00 72 1011.3
20260502193340 58 270 0.0 0.0 0.00 0.00 0.00 72 1011.4
20260502192840 59 270 0.0 0.0 0.00 0.00 0.00 72 1011.3
20260502192340 59 270 0.0 0.0 0.00 0.00 0.00 71 1011.2
20260502191840 60 270 0.0 0.0 0.00 0.00 0.00 71 1011.3
20260502191340 60 270 0.0 0.0 0.00 0.00 0.00 70 1011.2
20260502190840 60 270 0.0 0.0 0.00 0.00 0.00 70 1011.2
20260502190340 61 270 0.0 0.0 0.00 0.00 0.00 69 1011.1
20260502185840 61 270 0.0 0.0 0.00 0.00 0.00 68 1011.1
20260502185340 62 270 0.0 0.0 0.00 0.00 0.00 68 1011.1
20260502184840 62 270 0.0 0.0 0.00 0.00 0.00 67 1011.1
20260502184340 63 270 0.0 0.0 0.00 0.00 0.00 66 1011.1
20260502183841 63 270 0.0 0.0 0.00 0.00 0.00 66 1011.1
20260502183340 64 270 0.0 0.0 0.00 0.00 0.00 66 1011.0
20260502182840 64 270 0.0 0.0 0.00 0.00 0.00 65 1011.0
20260502182340 64 270 0.0 0.0 0.00 0.00 0.00 65 1011.2
20260502181840 64 247 0.0 0.0 0.00 0.00 0.00 64 1011.1
20260502181340 65 247 0.0 0.0 0.00 0.00 0.00 64 1011.0
20260502180840 65 247 0.0 0.0 0.00 0.00 0.00 63 1011.0
20260502180340 66 247 0.0 0.0 0.00 0.00 0.00 63 1011.1
20260502170340 70 135 0.0 0.0 0.00 0.00 0.00 58 1011.3
20260502164340 72 135 0.0 0.0 0.00 0.00 0.00 54 1011.3
20260502163840 73 135 0.0 0.0 0.00 0.00 0.00 53 1011.3
20260502163340 73 90 0.0 0.0 0.00 0.00 0.00 53 1011.4
20260502162840 74 90 0.0 0.0 0.00 0.00 0.00 51 1011.5
20260502162340 74 90 0.0 0.0 0.00 0.00 0.00 47 1011.4
20260502161840 74 90 0.0 0.0 0.00 0.00 0.00 47 1011.5
20260502161340 74 90 0.0 0.0 0.00 0.00 0.00 47 1011.6
20260502160840 74 90 0.0 0.0 0.00 0.00 0.00 47 1011.7
20260502160340 74 90 0.0 0.0 0.00 0.00 0.00 47 1011.7
20260502152341 75 90 0.0 0.0 0.00 0.00 0.00 46 1012.1
20260502151841 76 90 0.0 0.0 0.00 0.00 0.00 46 1012.1
20260502151341 76 90 0.0 0.0 0.00 0.00 0.00 46 1012.1
20260502150841 76 90 0.0 0.0 0.00 0.00 0.00 45 1012.2
20260502150341 77 90 0.0 0.0 0.00 0.00 0.00 45 1012.3
20260502130341 85 90 0.0 0.0 0.00 0.00 0.00 38 1014.2
20260502123341 90 180 0.0 0.0 0.00 0.00 0.00 36 1014.3
20260502122841 88 157 0.0 0.0 0.00 0.00 0.00 37 1014.4
20260502122341 87 157 0.0 0.0 0.00 0.00 0.00 37 1014.5
20260502121841 86 157 0.0 0.0 0.00 0.00 0.00 38 1014.7
20260502121341 84 135 0.0 0.0 0.00 0.00 0.00 38 1014.8
20260502120841 84 67 0.0 0.0 0.00 0.00 0.00 37 1015.0
20260502120341 86 90 0.0 0.0 0.00 0.00 0.00 36 1015.0
20260502115841 86 90 0.0 0.0 0.00 0.00 0.00 37 1015.1
20260502115341 85 112 0.0 0.0 0.00 0.00 0.00 38 1014.9
20260502114841 82 90 0.0 0.0 0.00 0.00 0.00 38 1014.9
20260502114341 82 90 0.0 0.0 0.00 0.00 0.00 38 1015.2
20260502113841 84 135 0.0 0.0 0.00 0.00 0.00 36 1015.3
20260502113341 87 112 0.0 0.0 0.00 0.00 0.00 36 1015.3
20260502112841 86 90 0.0 0.0 0.00 0.00 0.00 36 1015.3
20260502112341 86 90 0.0 0.0 0.00 0.00 0.00 36 1015.5
20260502111841 86 112 0.0 0.0 0.00 0.00 0.00 36 1015.5
20260502111341 86 247 0.0 0.0 0.00 0.00 0.00 37 1015.5
20260502110841 84 90 0.0 0.0 0.00 0.00 0.00 36 1015.6
20260502110341 86 90 0.0 0.0 0.00 0.00 0.00 35 1015.7
20260502105841 87 247 0.0 0.0 0.00 0.00 0.00 36 1015.5
20260502105341 87 90 0.0 0.0 0.00 0.00 0.00 36 1015.7
20260502104841 87 180 0.0 0.0 0.00 0.00 0.00 37 1015.6
20260502104341 87 157 0.0 0.0 0.00 0.00 0.00 36 1015.7
20260502103841 87 247 0.0 0.0 0.00 0.00 0.00 36 1015.7
20260502103341 87 202 0.0 0.0 0.00 0.00 0.00 37 1015.9
20260502102841 86 135 0.0 0.0 0.00 0.00 0.00 38 1015.9
20260502102341 86 90 0.0 0.0 0.00 0.00 0.00 37 1016.0
20260502101841 85 90 0.0 0.0 0.00 0.00 0.00 37 1016.1
20260502101341 85 90 0.0 0.0 0.00 0.00 0.00 38 1016.1
20260502100841 85 90 0.0 0.0 0.00 0.00 0.00 38 1016.2
20260502100341 84 90 0.0 0.0 0.00 0.00 0.00 38 1016.2
20260502091341 87 90 0.0 0.0 0.00 0.00 0.00 36 1016.6
20260502090841 86 90 0.0 0.0 0.00 0.00 0.00 37 1016.6
20260502090341 84 90 0.0 0.0 0.00 0.00 0.00 38 1016.6
20260502071341 56 22 0.0 0.0 0.00 0.00 0.00 66 1017.3
20260502070841 56 22 0.0 0.0 0.00 0.00 0.00 67 1017.5
20260502070341 56 22 0.0 0.0 0.00 0.00 0.00 68 1017.6
20260502065841 55 22 0.0 0.0 0.00 0.00 0.00 69 1017.5
20260502065341 55 22 0.0 0.0 0.00 0.00 0.00 69 1017.3
20260502064842 54 22 0.0 0.0 0.00 0.00 0.00 69 1017.3
20260502064342 53 22 0.0 0.0 0.00 0.00 0.00 71 1017.2
20260502063842 53 22 0.0 0.0 0.00 0.00 0.00 71 1017.0
20260502063342 52 22 0.0 0.0 0.00 0.00 0.00 71 1017.0
20260502062842 51 22 0.0 0.0 0.00 0.00 0.00 72 1017.0
20260502062342 51 22 0.0 0.0 0.00 0.00 0.00 72 1016.9
20260502061842 50 22 0.0 0.0 0.00 0.00 0.00 71 1017.0
20260502061342 50 22 0.0 0.0 0.00 0.00 0.00 72 1017.0
20260502060842 50 22 0.0 0.0 0.00 0.00 0.00 72 1017.3
20260502060342 50 22 0.0 0.0 0.00 0.00 0.00 72 1017.5
20260502055842 49 22 0.0 0.0 0.00 0.00 0.00 72 1017.5
20260502055342 49 22 0.0 0.0 0.00 0.00 0.00 72 1017.5
20260502054842 49 22 0.0 0.0 0.00 0.00 0.00 72 1017.5
20260502054342 49 22 0.0 0.0 0.00 0.00 0.00 72 1017.7
20260502053842 49 22 0.0 0.0 0.00 0.00 0.00 73 1017.6
20260502053342 49 22 0.0 0.0 0.00 0.00 0.00 73 1017.9
20260502052842 48 22 0.0 0.0 0.00 0.00 0.00 74 1017.9
20260502052342 48 22 0.0 0.0 0.00 0.00 0.00 74 1017.9
20260502051842 48 22 0.0 0.0 0.00 0.00 0.00 74 1017.9
20260502051342 47 22 0.0 0.0 0.00 0.00 0.00 74 1017.9
20260502050842 47 292 0.0 0.0 0.00 0.00 0.00 74 1017.9
20260502050342 46 292 0.0 0.0 0.00 0.00 0.00 75 1017.9
20260502045842 46 292 0.0 0.0 0.00 0.00 0.00 75 1017.8
20260502045342 46 292 0.0 0.0 0.00 0.00 0.00 75 1017.6
20260502044842 45 292 0.0 0.0 0.00 0.00 0.00 75 1017.5
20260502044342 45 292 0.0 0.0 0.00 0.00 0.00 75 1017.4
20260502043842 44 292 0.0 0.0 0.00 0.00 0.00 76 1017.4
20260502043342 44 292 0.0 0.0 0.00 0.00 0.00 76 1017.4
20260502042842 44 292 0.0 0.0 0.00 0.00 0.00 76 1017.3
20260502042342 43 292 0.0 0.0 0.00 0.00 0.00 76 1017.3
20260502041842 42 292 0.0 0.0 0.00 0.00 0.00 76 1017.3
20260502041342 42 292 0.0 0.0 0.00 0.00 0.00 76 1017.1
20260502040842 42 292 0.0 0.0 0.00 0.00 0.00 76 1017.2
20260502040342 42 292 0.0 0.0 0.00 0.00 0.00 76 1017.4
20260502035842 42 292 0.0 0.0 0.00 0.00 0.00 76 1017.4
20260502035342 42 292 0.0 0.0 0.00 0.00 0.00 76 1017.3
20260502034842 42 292 0.0 0.0 0.00 0.00 0.00 76 1017.3
20260502034342 42 292 0.0 0.0 0.00 0.00 0.00 76 1017.4
20260502033842 42 292 0.0 0.0 0.00 0.00 0.00 76 1017.4
20260502033342 42 292 0.0 0.0 0.00 0.00 0.00 76 1017.4
20260502032842 42 315 0.0 0.0 0.00 0.00 0.00 76 1017.4
20260502032342 42 315 0.0 0.0 0.00 0.00 0.00 75 1017.5
20260502031842 42 315 0.0 0.0 0.00 0.00 0.00 76 1017.5
20260502031342 42 315 0.0 0.0 0.00 0.00 0.00 76 1017.6
20260502030842 42 315 0.0 0.0 0.00 0.00 0.00 76 1017.6
20260502030342 42 292 0.0 0.0 0.00 0.00 0.00 76 1017.9
20260502025842 42 292 0.0 0.0 0.00 0.00 0.00 76 1018.1
20260502025342 41 292 0.0 0.0 0.00 0.00 0.00 75 1018.1
20260502024842 41 292 0.0 0.0 0.00 0.00 0.00 75 1017.9
20260502024342 41 90 0.0 0.0 0.00 0.00 0.00 74 1018.1
20260502023842 41 90 0.0 0.0 0.00 0.00 0.00 74 1017.6
20260502023342 41 90 0.0 0.0 0.00 0.00 0.00 74 1017.6
20260502022842 41 90 0.0 0.0 0.00 0.00 0.00 74 1017.6
20260502022342 41 90 0.0 0.0 0.00 0.00 0.00 74 1017.7
20260502021842 41 90 0.0 0.0 0.00 0.00 0.00 74 1017.6
20260502021342 41 90 0.0 0.0 0.00 0.00 0.00 74 1017.5
20260502020842 41 90 0.0 0.0 0.00 0.00 0.00 74 1017.6
20260502020342 41 90 0.0 0.0 0.00 0.00 0.00 73 1017.7
20260502015842 41 90 0.0 0.0 0.00 0.00 0.00 73 1017.8
20260502015342 41 90 0.0 0.0 0.00 0.00 0.00 73 1017.6
20260502014842 41 90 0.0 0.0 0.00 0.00 0.00 73 1017.7
20260502014342 41 90 0.0 0.0 0.00 0.00 0.00 73 1017.8
20260502013842 41 90 0.0 0.0 0.00 0.00 0.00 73 1017.9
20260502013342 41 90 0.0 0.0 0.00 0.00 0.00 73 1017.8
20260502012842 41 90 0.0 0.0 0.00 0.00 0.00 72 1017.9
20260502012342 42 90 0.0 0.0 0.00 0.00 0.00 73 1017.9
20260502011842 42 90 0.0 0.0 0.00 0.00 0.00 73 1017.9
20260502011342 42 90 0.0 0.0 0.00 0.00 0.00 73 1017.9
20260502010842 42 90 0.0 0.0 0.00 0.00 0.00 72 1017.9
20260502010342 42 90 0.0 0.0 0.00 0.00 0.00 71 1017.8
20260502005842 42 90 0.0 0.0 0.00 0.00 0.00 71 1017.7
20260502005342 42 90 0.0 0.0 0.00 0.00 0.00 71 1018.0
20260502004842 42 90 0.0 0.0 0.00 0.00 0.00 71 1018.1
20260502004342 42 90 0.0 0.0 0.00 0.00 0.00 71 1018.1
20260502003842 42 90 0.0 0.0 0.00 0.00 0.00 71 1018.2
20260502003342 42 90 0.0 0.0 0.00 0.00 0.00 71 1018.3
20260502002842 42 90 0.0 0.0 0.00 0.00 0.00 71 1018.3
20260502002342 42 90 0.0 0.0 0.00 0.00 0.00 70 1018.3
20260502001842 42 90 0.0 0.0 0.00 0.00 0.00 69 1018.3
20260502001342 42 90 0.0 0.0 0.00 0.00 0.00 69 1018.3
20260502000842 42 90 0.0 0.0 0.00 0.00 0.00 69 1018.2
20260502000342 42 90 0.0 0.0 0.00 0.00 0.00 69 1018.2
20260501235842 42 90 0.0 0.0 0.00 0.00 0.00 69 1018.3
20260501235342 42 90 0.0 0.0 0.00 0.00 0.00 69 1018.3
20260501234842 42 90 0.0 0.0 0.00 0.00 0.00 70 1018.3
20260501234342 42 90 0.0 0.0 0.00 0.00 0.00 69 1018.3
20260501233842 42 90 0.0 0.0 0.00 0.00 0.00 68 1018.3
20260501233342 42 90 0.0 0.0 0.00 0.00 0.00 68 1018.3
20260501232842 42 90 0.0 0.0 0.00 0.00 0.00 67 1018.3
20260501232342 42 90 0.0 0.0 0.00 0.00 0.00 66 1018.4